SA3PJN-WX Weather Reports


time (UTC)temp
F
wind
direction
speed
knots
gust
knots
rain 1hr
in
rain 24hr
in
rain mn
in
humidity
%
barometer
mb
20260503200243 39 286 3.5 5.2 0.00 0.00 0.00 59 961.2
20260503195743 39 285 2.6 5.2 0.00 0.00 0.00 60 961.2
20260503195243 39 267 2.6 5.2 0.00 0.00 0.00 60 961.3
20260503194743 40 284 2.6 5.2 0.00 0.00 0.00 60 961.5
20260503194243 40 270 2.6 5.2 0.00 0.00 0.00 58 961.5
20260503193713 40 317 2.6 7.0 0.00 0.00 0.00 57 961.5
20260503193213 40 315 2.6 7.0 0.00 0.00 0.00 58 961.5
20260503192713 40 323 2.6 7.8 0.00 0.00 0.00 57 961.5
20260503192143 40 295 2.6 7.8 0.00 0.00 0.00 57 961.5
20260503191643 40 306 3.5 7.8 0.00 0.00 0.00 56 961.4
20260503191143 40 344 2.6 7.0 0.00 0.00 0.00 56 961.6
20260503190643 40 26 2.6 7.0 0.00 0.00 0.00 56 961.6
20260503190143 41 14 2.6 6.1 0.00 0.00 0.00 55 962.0
20260503185643 41 278 3.5 6.1 0.00 0.00 0.00 55 962.0
20260503185143 41 293 2.6 6.1 0.00 0.00 0.00 55 962.0
20260503184643 41 15 2.6 6.1 0.00 0.00 0.00 54 962.0
20260503184143 42 255 2.6 6.1 0.00 0.00 0.00 53 962.0
20260503183643 42 22 1.7 6.1 0.00 0.00 0.00 51 962.0
20260503183143 42 315 2.6 6.1 0.00 0.00 0.00 50 962.0
20260503182643 42 45 2.6 6.1 0.00 0.00 0.00 50 962.0
20260503182143 42 315 2.6 6.1 0.00 0.00 0.00 49 962.0
20260503181643 42 256 3.5 7.0 0.00 0.00 0.00 50 962.0
20260503181143 42 16 3.5 7.0 0.00 0.00 0.00 48 962.0
20260503180642 42 21 2.6 7.0 0.00 0.00 0.00 50 962.0
20260503180142 42 277 2.6 7.0 0.00 0.00 0.00 50 962.0
20260503175612 42 295 4.3 8.7 0.00 0.00 0.00 50 962.2
20260503175112 42 317 4.3 8.7 0.00 0.00 0.00 51 962.0
20260503174612 42 20 4.3 8.7 0.00 0.00 0.00 49 962.2
20260503174113 42 45 3.5 7.8 0.00 0.00 0.00 48 962.3
20260503173542 43 69 3.5 7.0 0.00 0.00 0.00 49 962.4
20260503173042 43 28 3.5 7.0 0.00 0.00 0.00 48 962.4
20260503172542 43 299 2.6 5.2 0.00 0.00 0.00 47 962.5
20260503172042 42 55 2.6 5.2 0.00 0.00 0.00 49 962.5
20260503171512 43 8 2.6 5.2 0.00 0.00 0.00 47 962.5
20260503171012 43 293 1.7 5.2 0.00 0.00 0.00 45 962.5
20260503170442 44 228 1.7 4.3 0.00 0.00 0.00 44 963.0
20260503150841 47 3 1.7 3.5 0.00 0.00 0.00 45 964.0
20260503150341 47 119 1.7 3.5 0.00 0.00 0.00 44 964.0
20260503140241 46 88 3.5 10.4 0.00 0.00 0.00 43 965.0
20260503131041 47 17 2.6 7.8 0.00 0.00 0.00 43 965.1
20260503130511 48 92 2.6 7.0 0.00 0.00 0.00 41 965.1
20260503110811 49 186 3.5 7.8 0.00 0.00 0.00 43 965.6
20260503110311 49 122 3.5 7.8 0.00 0.00 0.00 45 966.0
20260503100240 42 90 2.6 9.6 0.00 0.00 0.00 57 966.1
20260503090140 41 127 3.5 11.3 0.00 0.00 0.00 51 966.1
20260503081510 43 165 2.6 8.7 0.00 0.00 0.00 54 966.5
20260503081010 42 220 2.6 8.7 0.00 0.00 0.00 55 966.5
20260503080440 42 114 4.3 10.4 0.00 0.00 0.00 58 966.6
20260503072810 38 191 4.3 11.3 0.00 0.00 0.00 66 966.6
20260503072240 38 119 3.5 11.3 0.00 0.00 0.00 65 967.0
20260503071740 38 99 3.5 13.0 0.00 0.00 0.00 62 967.0
20260503071210 39 184 3.5 13.0 0.00 0.00 0.00 64 966.6
20260503070709 40 78 3.5 11.3 0.00 0.00 0.00 60 966.6
20260503070209 43 134 3.5 11.3 0.00 0.00 0.00 57 966.6
20260503054939 42 121 3.5 13.0 0.00 0.00 0.00 59 966.4
20260503054439 43 105 2.6 9.6 0.00 0.00 0.00 60 966.4
20260503053939 43 183 2.6 13.0 0.00 0.00 0.00 60 966.3
20260503053439 42 103 3.5 13.0 0.00 0.00 0.00 61 966.4
20260503052939 42 87 2.6 11.3 0.00 0.00 0.00 61 966.3
20260503052439 43 155 2.6 11.3 0.00 0.00 0.00 60 966.4
20260503051939 43 21 2.6 8.7 0.00 0.00 0.00 59 966.5
20260503051409 43 71 2.6 8.7 0.00 0.00 0.00 61 966.5
20260503050909 43 47 2.6 11.3 0.00 0.00 0.00 60 966.5
20260503050409 42 122 1.7 11.3 0.00 0.00 0.00 61 966.4
20260503045909 42 128 2.6 11.3 0.00 0.00 0.00 61 966.3
20260503045409 41 96 2.6 11.3 0.00 0.00 0.00 64 966.3
20260503044839 40 201 2.6 11.3 0.00 0.00 0.00 65 966.2
20260503044339 40 171 2.6 8.7 0.00 0.00 0.00 65 966.2
20260503043839 39 182 2.6 7.8 0.00 0.00 0.00 67 966.1
20260503043339 39 114 3.5 11.3 0.00 0.00 0.00 66 966.1
20260503042839 38 58 3.5 11.3 0.00 0.00 0.00 68 966.2
20260503042339 39 159 3.5 9.6 0.00 0.00 0.00 67 966.1
20260503041839 38 123 2.6 9.6 0.00 0.00 0.00 67 966.2
20260503041309 38 220 2.6 8.7 0.00 0.00 0.00 67 966.1
20260503040809 38 50 2.6 8.7 0.00 0.00 0.00 68 966.1
20260503040309 37 170 2.6 9.6 0.00 0.00 0.00 70 966.0
20260503035809 37 161 3.5 9.6 0.00 0.00 0.00 72 966.2
20260503035239 36 178 4.3 9.6 0.00 0.00 0.00 74 966.1
20260503034738 35 188 4.3 7.8 0.00 0.00 0.00 73 966.3
20260503034238 35 192 3.5 6.1 0.00 0.00 0.00 73 966.3
20260503033738 35 193 2.6 5.2 0.00 0.00 0.00 72 966.2
20260503033238 35 207 1.7 5.2 0.00 0.00 0.00 73 966.2
20260503032738 35 204 1.7 6.1 0.00 0.00 0.00 72 966.2
20260503032238 35 60 1.7 7.8 0.00 0.00 0.00 73 966.4
20260503031738 34 79 3.5 7.8 0.00 0.00 0.00 76 966.2
20260503031209 33 191 3.5 7.0 0.00 0.00 0.00 78 966.2
20260503030708 33 160 3.5 7.0 0.00 0.00 0.00 79 966.1
20260503030208 32 198 2.6 5.2 0.00 0.00 0.00 81 966.2
20260503025638 32 186 1.7 4.3 0.00 0.00 0.00 81 966.2
20260503025138 31 254 2.6 6.1 0.00 0.00 0.00 82 966.3
20260503024638 31 216 3.5 7.8 0.00 0.00 0.00 82 966.2
20260503024138 31 190 3.5 7.8 0.00 0.00 0.00 83 966.2
20260503023638 31 174 2.6 7.8 0.00 0.00 0.00 83 966.0
20260503023138 31 259 3.5 7.0 0.00 0.00 0.00 83 966.1
20260503022638 31 172 3.5 8.7 0.00 0.00 0.00 83 966.0
20260503022138 31 165 2.6 8.7 0.00 0.00 0.00 83 966.0
20260503021638 31 192 2.6 9.6 0.00 0.00 0.00 84 966.0
20260503021108 31 87 2.6 9.6 0.00 0.00 0.00 84 966.0
20260503020608 31 202 2.6 9.6 0.00 0.00 0.00 83 966.0
20260503020038 31 163 2.6 9.6 0.00 0.00 0.00 83 966.0
20260503015538 30 136 2.6 9.6 0.00 0.00 0.00 83 966.0
20260503015038 31 88 3.5 9.6 0.00 0.00 0.00 82 966.1
20260503014538 31 103 3.5 8.7 0.00 0.00 0.00 82 966.0
20260503014038 31 176 4.3 7.8 0.00 0.00 0.00 82 966.1
20260503013538 31 185 4.3 7.8 0.00 0.00 0.00 82 966.1
20260503013038 31 193 3.5 7.8 0.00 0.00 0.00 83 966.0
20260503012538 31 196 5.2 11.3 0.00 0.00 0.00 83 966.0
20260503012038 31 186 6.1 13.9 0.00 0.00 0.00 83 966.0
20260503011508 31 185 6.1 14.8 0.00 0.00 0.00 84 966.0
20260503010938 31 176 5.2 14.8 0.00 0.00 0.00 84 966.0
20260503010438 31 182 4.3 12.2 0.00 0.00 0.00 85 966.0
20260503005908 31 150 3.5 9.6 0.00 0.00 0.00 85 966.0
20260503005408 31 60 2.6 7.8 0.00 0.00 0.00 85 966.0
20260503004908 31 135 2.6 11.3 0.00 0.00 0.00 85 966.0
20260503004408 31 136 2.6 11.3 0.00 0.00 0.00 85 966.0
20260503003838 31 152 2.6 7.8 0.00 0.00 0.00 85 966.0
20260503003338 31 109 4.3 11.3 0.00 0.00 0.00 85 966.0
20260503002808 31 2 4.3 11.3 0.00 0.00 0.00 84 966.0
20260503002308 31 183 4.3 11.3 0.00 0.00 0.00 84 966.0
20260503001808 31 179 4.3 12.2 0.00 0.00 0.00 84 966.0
20260503001308 31 189 5.2 12.2 0.00 0.00 0.00 84 966.0
20260503000808 31 182 5.2 13.0 0.00 0.00 0.00 84 966.0
20260503000238 31 168 4.3 13.0 0.00 0.00 0.00 84 966.0
20260502235738 31 161 3.5 13.0 0.00 0.00 0.00 84 966.0
20260502235238 31 101 4.3 11.3 0.00 0.00 0.00 83 966.0
20260502234708 31 94 4.3 11.3 0.00 0.00 0.00 82 965.6
20260502234208 32 208 5.2 11.3 0.00 0.00 0.00 82 966.0
20260502233638 32 148 5.2 13.9 0.00 0.00 0.00 82 965.6
20260502233138 32 183 5.2 13.9 0.00 0.00 0.00 83 966.0
20260502232637 32 164 3.5 13.0 0.00 0.00 0.00 84 965.6
20260502232137 31 95 3.5 13.0 0.00 0.00 0.00 84 966.0
20260502231637 31 138 3.5 11.3 0.00 0.00 0.00 85 966.0
20260502231107 31 53 3.5 11.3 0.00 0.00 0.00 86 966.0
20260502230538 32 147 4.3 12.2 0.00 0.00 0.00 86 965.6
20260502230037 32 89 4.3 12.2 0.00 0.00 0.00 86 966.0
20260502225537 32 123 4.3 12.2 0.00 0.00 0.00 85 966.0
20260502225007 32 177 4.3 12.2 0.00 0.00 0.00 85 966.0
20260502224507 32 157 3.5 12.2 0.00 0.00 0.00 84 966.0
20260502224007 32 161 3.5 11.3 0.00 0.00 0.00 84 966.0
20260502223437 32 95 3.5 12.2 0.00 0.00 0.00 84 966.0
20260502222937 32 216 3.5 12.2 0.00 0.00 0.00 84 966.0
20260502222437 32 96 3.5 10.4 0.00 0.00 0.00 84 966.0
20260502221907 33 66 2.6 10.4 0.00 0.00 0.00 84 965.6
20260502221337 33 75 2.6 12.2 0.00 0.00 0.00 83 966.0
20260502220837 33 122 2.6 12.2 0.00 0.00 0.00 83 966.0
20260502220337 33 116 1.7 7.8 0.00 0.00 0.00 83 966.0
20260502215837 33 153 1.7 7.8 0.00 0.00 0.00 82 966.0
20260502215337 33 115 2.6 7.8 0.00 0.00 0.00 82 966.0
20260502214837 34 123 4.3 12.2 0.00 0.00 0.00 81 966.0
20260502214337 34 192 4.3 13.9 0.00 0.00 0.00 81 966.0
20260502213837 34 81 5.2 13.9 0.00 0.00 0.00 81 965.6
20260502213307 34 104 5.2 13.9 0.00 0.00 0.00 80 966.0
20260502212807 34 98 4.3 13.9 0.00 0.00 0.00 79 966.0
20260502212237 34 173 3.5 11.3 0.00 0.00 0.00 80 966.0
20260502211737 34 127 1.7 7.0 0.00 0.00 0.00 82 966.0
20260502211237 35 160 2.6 9.6 0.00 0.00 0.00 82 966.0
20260502210707 35 93 2.6 9.6 0.00 0.00 0.00 81 966.0
20260502210207 35 82 2.6 10.4 0.00 0.00 0.00 80 966.0
20260502205707 36 121 2.6 10.4 0.00 0.00 0.00 81 966.0
20260502205207 36 185 3.5 8.7 0.00 0.00 0.00 81 966.2
20260502204707 36 42 4.3 13.9 0.00 0.00 0.00 81 966.1
20260502204137 36 176 5.2 13.9 0.00 0.00 0.00 80 966.1
20260502203637 36 191 5.2 13.9 0.00 0.00 0.00 80 966.0
20260502203137 36 189 5.2 16.5 0.00 0.00 0.00 79 966.0
20260502202637 37 202 5.2 16.5 0.00 0.00 0.00 79 966.0
20260502202137 37 98 4.3 13.9 0.00 0.00 0.00 78 966.0
20260502201637 37 171 4.3 12.2 0.00 0.00 0.00 78 966.0
20260502201137 37 118 4.3 12.2 0.00 0.00 0.00 77 966.0
20260502200636 37 125 4.3 13.0 0.00 0.00 0.00 77 966.0